Location: Zagreb
(45.8000°N, 16.0000°E)
Time: 14:39:18
(UTC+02:00)

Tiros 1 despin weight - Pass Details

Date: 15 August 2022
Orbit: 590 x 639 km, 48.2° (Epoch: 23 September)

Event Time Altitude Azimuth Distance (km) Brightness Sun altitude
Rises 14:08:06 0° 270° (W) 2,853 ? 55.1°
Reaches altitude 10° 14:10:26 10° 274° (W) 1,943 ? 54.9°
Maximum altitude 14:14:51 64° 356° (N) 664 ? 54.5°
Drops below altitude 10° 14:19:14 10° 79° (ENE) 1,923 ? 54.1°
Sets 14:21:31 0° 82° (E) 2,821 ? 53.9°
